START_TIME,STEP,MOV.,M6,t_acc.,M7,t_acc.,M19,t_acc.,H36,t_acc.
1979-08-06 00:00:25.700 ,0,0,0.,12.0,0.,12.0,0.,12.0,0.,12.0
1979-08-06 00:00:37.700 ,0,0,0.,12.0,0.,12.0,0.,12.0,0.,12.0
1979-08-06 00:00:49.700 ,1,1,0.,12.0,0.,12.0,0.,12.0,0.,12.0
1979-08-06 00:01:01.700 ,1,1,0.,12.0,0.,12.0,0.,12.0,0.,12.0
1979-08-06 00:01:13.700 ,1,0,0.,12.0,0.,12.0,0.,12.0,0.,12.0
1979-08-06 00:01:25.700 ,1,0,0.,12.0,0.,12.0,0.,12.0,0.,12.0
1979-08-06 00:01:37.700 ,2,1,0.,12.0,0.,12.0,0.,12.0,0.,12.0
1979-08-06 00:01:49.700 ,2,1,0.,12.0,0.,12.0,0.,12.0,0.,12.0
1979-08-06 00:02:01.700 ,2,0,,0,,0,,0,,0
1979-08-06 00:02:13.700 ,2,0,0.,12.0,0.,12.0,0.,12.0,0.,12.0
1979-08-06 00:02:25.700 ,3,1,0.,12.0,0.,12.0,0.,12.0,0.,12.0
1979-08-06 00:02:37.700 ,3,1,0.,12.0,0.,12.0,0.,12.0,0.,12.0
1979-08-06 00:02:49.700 ,3,0,0.,12.0,0.,12.0,0.,12.0,0.,12.0
1979-08-06 00:03:01.700 ,3,0,0.,12.0,0.,12.0,0.,12.0,0.,12.0
1979-08-06 00:03:13.700 ,4,1,0.,12.0,0.,12.0,0.,12.0,0.,12.0
1979-08-06 00:03:25.700 ,4,1,0.,12.0,0.,12.0,0.,12.0,0.,12.0
1979-08-06 00:03:37.700 ,4,0,0.,12.0,0.,12.0,0.,12.0,0.,12.0
1979-08-06 00:03:49.700 ,4,0,0.,12.0,0.,12.0,0.,12.0,0.,12.0
1979-08-06 00:04:01.700 ,5,1,0.,12.0,0.,12.0,0.,12.0,0.,12.0
1979-08-06 00:04:13.700 ,5,1,0.,12.0,0.,12.0,0.,12.0,0.,12.0
1979-08-06 00:04:25.700 ,5,0,0.,12.0,0.,12.0,0.,12.0,0.,12.0
1979-08-06 00:04:37.700 ,5,0,0.,12.0,0.,12.0,0.,12.0,0.,12.0
1979-08-06 00:04:49.700 ,6,1,0.,12.0,0.,12.0,0.,12.0,0.,12.0
1979-08-06 00:05:01.700 ,6,1,0.,12.0,0.,12.0,0.,12.0,0.,12.0
1979-08-06 00:05:13.700 ,6,0,0.,12.0,0.,12.0,0.,12.0,0.,12.0
1979-08-06 00:05:25.700 ,6,0,0.,12.0,0.,12.0,0.,12.0,0.,12.0
1979-08-06 00:05:37.700 ,7,1,0.,12.0,0.,12.0,0.,12.0,0.,12.0
1979-08-06 00:05:49.700 ,7,1,0.,12.0,0.,12.0,0.,12.0,0.,12.0
1979-08-06 00:06:01.700 ,7,0,0.,12.0,0.,12.0,0.,12.0,0.,12.0
1979-08-06 00:06:13.700 ,7,0,0.,12.0,0.,12.0,0.,12.0,0.,12.0
1979-08-06 00:06:25.700 ,7,1,0.,12.0,0.,12.0,0.,12.0,0.,12.0
1979-08-06 00:06:37.700 ,7,1,0.,12.0,0.,12.0,0.,12.0,0.,12.0
1979-08-06 00:06:49.700 ,7,0,0.,12.0,0.,12.0,0.,12.0,0.,12.0
1979-08-06 00:07:01.700 ,7,0,0.,12.0,0.,12.0,0.,12.0,0.,12.0
1979-08-06 00:07:14.300 ,6,1,0.,12.0,0.,12.0,0.,12.0,0.,12.0
1979-08-06 00:07:26.300 ,6,1,0.,12.0,0.,12.0,0.,12.0,0.,12.0
1979-08-06 00:07:37.700 ,6,0,0.,12.0,0.,12.0,0.,12.0,0.,12.0
1979-08-06 00:07:49.700 ,6,0,0.,12.0,0.,12.0,0.,12.0,0.,12.0
1979-08-06 00:08:01.700 ,5,1,0.,12.0,0.,12.0,0.,12.0,0.,12.0
1979-08-06 00:08:13.700 ,5,1,0.,12.0,0.,12.0,0.,12.0,0.,12.0
1979-08-06 00:08:25.700 ,5,0,0.,12.0,0.,12.0,0.,12.0,0.,12.0
1979-08-06 00:08:37.700 ,5,0,0.,12.0,0.,12.0,0.,12.0,0.,12.0
1979-08-06 00:08:49.700 ,4,1,0.,12.0,0.,12.0,0.,12.0,0.,12.0
1979-08-06 00:09:01.700 ,4,1,0.,12.0,0.,12.0,0.,12.0,0.,12.0
1979-08-06 00:09:13.700 ,4,0,0.,12.0,0.,12.0,0.,12.0,0.,12.0
1979-08-06 00:09:25.700 ,4,0,0.,12.0,0.,12.0,0.,12.0,0.,12.0
1979-08-06 00:09:37.700 ,3,1,0.,12.0,0.,12.0,0.,12.0,0.,12.0
1979-08-06 00:09:49.700 ,3,1,0.,12.0,0.,12.0,0.,12.0,0.,12.0
1979-08-06 00:10:01.700 ,3,0,0.,12.0,0.,12.0,0.,12.0,0.,12.0
1979-08-06 00:10:13.700 ,3,0,0.,12.0,0.,12.0,0.,12.0,0.,12.0
1979-08-06 00:10:25.700 ,2,1,0.,12.0,0.,12.0,0.,12.0,0.,12.0
1979-08-06 00:10:37.700 ,2,1,0.,12.0,0.,12.0,0.,12.0,0.,12.0
1979-08-06 00:10:49.700 ,2,0,0.,12.0,0.,12.0,0.,12.0,0.,12.0
1979-08-06 00:11:01.700 ,2,0,0.,12.0,0.,12.0,0.,12.0,0.,12.0
1979-08-06 00:11:13.700 ,2,0,0.,12.0,0.,12.0,0.,12.0,0.,12.0
1979-08-06 00:11:25.700 ,2,0,,0,,0,,0,,0
1979-08-06 00:11:37.700 ,1,0,0.,12.0,0.,12.0,0.,12.0,0.,12.0
1979-08-06 00:11:49.700 ,1,0,0.,12.0,0.,12.0,0.,12.0,0.,12.0
1979-08-06 00:12:01.700 ,0,1,0.,12.0,0.,12.0,0.,12.0,0.,12.0
1979-08-06 00:12:13.700 ,0,1,1.,12.0,0.,12.0,0.,12.0,0.,12.0
1979-08-06 00:12:25.700 ,0,0,0.,12.0,0.,12.0,0.,12.0,0.,12.0
1979-08-06 00:12:37.700 ,0,0,0.,12.0,0.,12.0,0.,12.0,0.,12.0
1979-08-06 00:12:49.700 ,0,1,0.,12.0,0.,12.0,0.,12.0,0.,12.0
1979-08-06 00:13:01.700 ,0,1,0.,12.0,0.,12.0,0.,12.0,0.,12.0
1979-08-06 00:13:13.700 ,0,0,0.,12.0,0.,12.0,0.,12.0,0.,12.0
1979-08-06 00:13:25.700 ,0,0,0.,12.0,0.,12.0,0.,12.0,0.,12.0
1979-08-06 00:13:37.700 ,1,1,0.,12.0,0.,12.0,0.,12.0,0.,12.0
1979-08-06 00:13:49.700 ,1,1,0.,12.0,0.,12.0,0.,12.0,0.,12.0
1979-08-06 00:14:01.700 ,1,0,1.,12.0,0.,12.0,0.,12.0,0.,12.0
1979-08-06 00:14:13.700 ,1,0,0.,12.0,0.,12.0,0.,12.0,0.,12.0
1979-08-06 00:14:25.700 ,2,1,0.,12.0,0.,12.0,0.,12.0,0.,12.0
1979-08-06 00:14:37.700 ,2,1,0.,12.0,0.,12.0,0.,12.0,0.,12.0
1979-08-06 00:14:49.700 ,0,0,,0,,0,,0,,0
1979-08-06 00:15:01.700 ,0,0,,0,,0,,0,,0
1979-08-06 00:14:49.700 ,0,0,0.,12.0,0.,12.0,0.,12.0,0.,12.0
1979-08-06 00:15:01.700 ,0,0,0.,12.0,0.,12.0,0.,12.0,0.,12.0
1979-08-06 00:15:15.500 ,3,1,0.,12.0,0.,12.0,0.,12.0,0.,12.0
1979-08-06 00:15:27.500 ,3,1,0.,12.0,0.,12.0,0.,12.0,0.,12.0
1979-08-06 00:15:37.700 ,3,0,0.,12.0,0.,12.0,0.,12.0,0.,12.0
1979-08-06 00:15:49.700 ,3,0,0.,12.0,0.,12.0,0.,12.0,0.,12.0
1979-08-06 00:16:01.700 ,4,1,0.,12.0,0.,12.0,0.,12.0,0.,12.0
1979-08-06 00:16:13.700 ,4,1,0.,12.0,0.,12.0,0.,12.0,0.,12.0
1979-08-06 00:16:25.700 ,4,0,0.,12.0,0.,12.0,0.,12.0,0.,12.0
1979-08-06 00:16:37.700 ,4,0,0.,12.0,0.,12.0,0.,12.0,0.,12.0
1979-08-06 00:16:49.700 ,5,1,0.,12.0,0.,12.0,0.,12.0,0.,12.0
1979-08-06 00:17:01.700 ,5,1,0.,12.0,0.,12.0,0.,12.0,0.,12.0
1979-08-06 00:17:13.700 ,5,0,0.,12.0,0.,12.0,0.,12.0,0.,12.0
1979-08-06 00:17:25.700 ,5,0,0.,12.0,0.,12.0,0.,12.0,0.,12.0
1979-08-06 00:17:37.700 ,6,1,0.,12.0,0.,12.0,0.,12.0,0.,12.0
1979-08-06 00:17:49.700 ,6,1,0.,12.0,0.,12.0,0.,12.0,0.,12.0
1979-08-06 00:18:01.700 ,6,0,0.,12.0,0.,12.0,0.,12.0,0.,12.0
1979-08-06 00:18:13.700 ,6,0,0.,12.0,0.,12.0,0.,12.0,0.,12.0
1979-08-06 00:18:25.700 ,7,0,0.,12.0,0.,12.0,0.,12.0,0.,12.0
1979-08-06 00:18:37.700 ,7,0,0.,12.0,0.,12.0,0.,12.0,0.,12.0
1979-08-06 00:18:49.700 ,7,0,0.,12.0,0.,12.0,0.,12.0,0.,12.0
1979-08-06 00:19:01.700 ,7,0,0.,12.0,0.,12.0,0.,12.0,0.,12.0
1979-08-06 00:19:13.700 ,4,1,0.,12.0,0.,12.0,0.,12.0,0.,12.0
1979-08-06 00:19:25.700 ,4,1,0.,12.0,0.,12.0,0.,12.0,0.,12.0
1979-08-06 00:19:37.700 ,0,1,0.,12.0,0.,12.0,0.,12.0,0.,12.0
1979-08-06 00:19:49.700 ,0,1,0.,12.0,0.,12.0,0.,12.0,0.,12.0
1979-08-06 00:20:01.700 ,3,1,0.,12.0,0.,12.0,0.,12.0,0.,12.0
1979-08-06 00:20:13.700 ,3,1,0.,12.0,0.,12.0,0.,12.0,0.,12.0
1979-08-06 00:20:25.700 ,7,1,0.,12.0,0.,12.0,0.,12.0,0.,12.0
1979-08-06 00:20:37.700 ,7,1,0.,12.0,0.,12.0,0.,12.0,0.,12.0
1979-08-06 00:20:49.700 ,4,1,0.,12.0,0.,12.0,0.,12.0,0.,12.0
1979-08-06 00:21:01.700 ,4,1,0.,12.0,0.,12.0,0.,12.0,0.,12.0
1979-08-06 00:21:13.700 ,0,1,0.,12.0,0.,12.0,0.,12.0,0.,12.0
1979-08-06 00:21:25.700 ,0,1,0.,12.0,0.,12.0,0.,12.0,0.,12.0
1979-08-06 00:21:37.700 ,3,1,0.,12.0,0.,12.0,0.,12.0,0.,12.0
1979-08-06 00:21:49.700 ,3,1,0.,12.0,0.,12.0,0.,12.0,0.,12.0
1979-08-06 00:22:01.700 ,7,1,0.,12.0,0.,12.0,0.,12.0,0.,12.0
1979-08-06 00:22:13.700 ,7,1,0.,12.0,0.,12.0,0.,12.0,0.,12.0
1979-08-06 00:22:25.700 ,4,1,0.,12.0,0.,12.0,0.,12.0,0.,12.0
1979-08-06 00:22:37.700 ,4,1,0.,12.0,0.,12.0,0.,12.0,0.,12.0
1979-08-06 00:22:49.700 ,0,1,0.,12.0,0.,12.0,0.,12.0,0.,12.0
1979-08-06 00:23:01.700 ,0,1,0.,12.0,0.,12.0,0.,12.0,0.,12.0
1979-08-06 00:23:13.700 ,3,1,1.,12.0,0.,12.0,0.,12.0,0.,12.0
1979-08-06 00:23:25.700 ,3,1,0.,12.0,0.,12.0,0.,12.0,0.,12.0
1979-08-06 00:23:37.700 ,7,1,0.,12.0,0.,12.0,0.,12.0,0.,12.0
1979-08-06 00:23:49.700 ,7,1,0.,12.0,0.,12.0,0.,12.0,0.,12.0
1979-08-06 00:24:01.700 ,4,1,0.,12.0,0.,12.0,0.,12.0,0.,12.0
1979-08-06 00:24:13.700 ,4,1,0.,12.0,0.,12.0,0.,12.0,0.,12.0
1979-08-06 00:24:25.700 ,0,1,0.,12.0,0.,12.0,0.,12.0,0.,12.0
1979-08-06 00:24:37.700 ,0,1,0.,12.0,0.,12.0,0.,12.0,0.,12.0
1979-08-06 00:24:49.700 ,0,0,0.,12.0,0.,12.0,0.,12.0,0.,12.0
1979-08-06 00:25:01.700 ,0,0,1.,12.0,0.,12.0,0.,12.0,0.,12.0
1979-08-06 00:25:13.700 ,0,0,0.,12.0,0.,12.0,0.,12.0,0.,12.0
1979-08-06 00:25:25.700 ,0,0,0.,12.0,0.,12.0,0.,12.0,0.,12.0
1979-08-06 00:25:37.700 ,4,1,0.,12.0,0.,12.0,0.,12.0,0.,12.0
1979-08-06 00:25:49.700 ,4,1,0.,12.0,0.,12.0,0.,12.0,0.,12.0
1979-08-06 00:26:01.700 ,0,1,0.,12.0,0.,12.0,0.,12.0,0.,12.0
1979-08-06 00:26:13.700 ,0,1,0.,12.0,0.,12.0,0.,12.0,0.,12.0
1979-08-06 00:26:25.700 ,3,1,0.,12.0,0.,12.0,0.,12.0,0.,12.0
1979-08-06 00:26:37.700 ,3,1,0.,12.0,0.,12.0,0.,12.0,0.,12.0
1979-08-06 00:26:49.700 ,7,1,0.,12.0,0.,12.0,0.,12.0,0.,12.0
1979-08-06 00:27:01.700 ,7,1,0.,12.0,0.,12.0,0.,12.0,0.,12.0
1979-08-06 00:27:13.700 ,4,1,0.,12.0,0.,12.0,0.,12.0,0.,12.0
1979-08-06 00:27:25.700 ,4,1,0.,12.0,0.,12.0,0.,12.0,0.,12.0
1979-08-06 00:27:37.700 ,0,1,0.,12.0,0.,12.0,0.,12.0,0.,12.0
1979-08-06 00:27:49.700 ,0,1,0.,12.0,0.,12.0,0.,12.0,0.,12.0
1979-08-06 00:28:01.700 ,3,1,0.,12.0,0.,12.0,0.,12.0,0.,12.0
1979-08-06 00:28:13.700 ,3,1,0.,12.0,0.,12.0,0.,12.0,0.,12.0
1979-08-06 00:28:25.700 ,7,1,0.,12.0,0.,12.0,0.,12.0,0.,12.0
1979-08-06 00:28:37.700 ,7,1,0.,12.0,0.,12.0,0.,12.0,0.,12.0
1979-08-06 00:28:49.700 ,4,1,0.,12.0,0.,12.0,0.,12.0,0.,12.0
1979-08-06 00:29:01.700 ,4,1,0.,12.0,0.,12.0,0.,12.0,0.,12.0
1979-08-06 00:29:13.700 ,0,1,0.,12.0,0.,12.0,0.,12.0,0.,12.0
1979-08-06 00:29:25.700 ,0,1,0.,12.0,0.,12.0,0.,12.0,0.,12.0
1979-08-06 00:29:37.700 ,0,0,0.,12.0,0.,12.0,0.,12.0,0.,12.0
1979-08-06 00:29:49.700 ,0,0,0.,12.0,0.,12.0,0.,12.0,0.,12.0
1979-08-06 00:30:01.700 ,0,0,0.,12.0,0.,12.0,0.,12.0,0.,12.0
1979-08-06 00:30:13.700 ,0,0,0.,12.0,0.,12.0,0.,12.0,0.,12.0
1979-08-06 00:30:25.700 ,5,1,0.,12.0,0.,12.0,0.,12.0,0.,12.0
1979-08-06 00:30:37.700 ,5,1,0.,12.0,0.,12.0,0.,12.0,0.,12.0
1979-08-06 00:30:49.700 ,5,0,0.,12.0,0.,12.0,0.,12.0,0.,12.0
1979-08-06 00:31:01.700 ,5,0,0.,12.0,0.,12.0,0.,12.0,0.,12.0
1979-08-06 00:31:13.700 ,4,1,0.,12.0,0.,12.0,0.,12.0,0.,12.0
1979-08-06 00:31:25.700 ,4,1,0.,12.0,0.,12.0,0.,12.0,0.,12.0
1979-08-06 00:31:37.700 ,4,0,0.,12.0,0.,12.0,0.,12.0,0.,12.0
1979-08-06 00:31:49.700 ,4,0,0.,12.0,0.,12.0,0.,12.0,0.,12.0
1979-08-06 00:32:01.700 ,3,1,0.,12.0,0.,12.0,0.,12.0,0.,12.0
1979-08-06 00:32:13.700 ,3,1,1.,12.0,0.,12.0,0.,12.0,0.,12.0
1979-08-06 00:32:25.700 ,3,0,0.,12.0,0.,12.0,0.,12.0,0.,12.0
1979-08-06 00:32:37.700 ,3,0,0.,12.0,0.,12.0,0.,12.0,0.,12.0
1979-08-06 00:32:49.700 ,2,1,0.,12.0,0.,12.0,0.,12.0,0.,12.0
1979-08-06 00:33:01.700 ,2,1,0.,12.0,0.,12.0,0.,12.0,0.,12.0
1979-08-06 00:33:13.700 ,2,0,0.,12.0,0.,12.0,0.,12.0,0.,12.0
1979-08-06 00:33:25.700 ,2,0,0.,12.0,0.,12.0,0.,12.0,0.,12.0
1979-08-06 00:33:37.700 ,1,1,0.,12.0,0.,12.0,0.,12.0,0.,12.0
1979-08-06 00:33:49.700 ,1,1,0.,12.0,0.,12.0,0.,12.0,0.,12.0
1979-08-06 00:34:01.700 ,1,0,0.,12.0,0.,12.0,0.,12.0,0.,12.0
1979-08-06 00:34:13.700 ,1,0,0.,12.0,0.,12.0,0.,12.0,0.,12.0
1979-08-06 00:34:25.700 ,0,1,0.,12.0,0.,12.0,0.,12.0,0.,12.0
1979-08-06 00:34:37.700 ,0,1,0.,12.0,0.,12.0,0.,12.0,0.,12.0
1979-08-06 00:34:49.700 ,0,0,0.,12.0,0.,12.0,0.,12.0,0.,12.0
1979-08-06 00:35:01.700 ,0,0,0.,12.0,0.,12.0,0.,12.0,0.,12.0
1979-08-06 00:35:13.700 ,0,1,0.,12.0,0.,12.0,0.,12.0,0.,12.0
1979-08-06 00:35:25.700 ,0,1,0.,12.0,0.,12.0,0.,12.0,0.,12.0
1979-08-06 00:35:37.700 ,0,0,0.,12.0,0.,12.0,0.,12.0,0.,12.0
1979-08-06 00:35:49.700 ,0,0,0.,12.0,0.,12.0,0.,12.0,0.,12.0
1979-08-06 00:36:01.700 ,0,0,0.,12.0,0.,12.0,0.,12.0,0.,12.0
1979-08-06 00:36:13.700 ,0,0,,0,,0,,0,,0
1979-08-06 00:36:25.700 ,1,0,0.,12.0,0.,12.0,0.,12.0,0.,12.0
1979-08-06 00:36:37.700 ,1,0,0.,12.0,0.,12.0,0.,12.0,0.,12.0
1979-08-06 00:36:49.700 ,2,1,0.,12.0,0.,12.0,0.,12.0,0.,12.0
1979-08-06 00:37:01.700 ,2,1,0.,12.0,0.,12.0,0.,12.0,0.,12.0
1979-08-06 00:37:13.700 ,2,0,0.,12.0,0.,12.0,0.,12.0,0.,12.0
1979-08-06 00:37:25.700 ,2,0,0.,12.0,0.,12.0,0.,12.0,0.,12.0
1979-08-06 00:37:37.700 ,3,1,0.,12.0,0.,12.0,0.,12.0,0.,12.0
1979-08-06 00:37:49.700 ,3,1,0.,12.0,0.,12.0,0.,12.0,0.,12.0
1979-08-06 00:38:01.700 ,3,0,0.,12.0,0.,12.0,0.,12.0,0.,12.0
1979-08-06 00:38:13.700 ,3,0,0.,12.0,0.,12.0,0.,12.0,0.,12.0
1979-08-06 00:38:25.700 ,4,1,0.,12.0,0.,12.0,0.,12.0,0.,12.0
1979-08-06 00:38:37.700 ,4,1,0.,12.0,0.,12.0,0.,12.0,0.,12.0
1979-08-06 00:38:49.700 ,4,0,0.,12.0,0.,12.0,0.,12.0,0.,12.0
1979-08-06 00:39:01.700 ,4,0,0.,12.0,0.,12.0,0.,12.0,0.,12.0
1979-08-06 00:39:13.700 ,5,1,0.,12.0,0.,12.0,0.,12.0,0.,12.0
1979-08-06 00:39:25.700 ,5,1,0.,12.0,0.,12.0,0.,12.0,0.,12.0
1979-08-06 00:39:37.700 ,5,0,0.,12.0,0.,12.0,0.,12.0,0.,12.0
1979-08-06 00:39:49.700 ,5,0,0.,12.0,0.,12.0,0.,12.0,0.,12.0
1979-08-06 00:40:01.700 ,6,1,0.,12.0,0.,12.0,0.,12.0,0.,12.0
1979-08-06 00:40:13.700 ,6,1,0.,12.0,0.,12.0,0.,12.0,0.,12.0
1979-08-06 00:40:25.700 ,6,0,0.,12.0,0.,12.0,0.,12.0,0.,12.0
1979-08-06 00:40:37.700 ,6,0,0.,12.0,0.,12.0,0.,12.0,0.,12.0
1979-08-06 00:40:49.700 ,7,1,0.,12.0,0.,12.0,0.,12.0,0.,12.0
1979-08-06 00:41:01.700 ,7,1,0.,12.0,0.,12.0,0.,12.0,0.,12.0
1979-08-06 00:41:13.700 ,7,0,0.,12.0,0.,12.0,0.,12.0,0.,12.0
1979-08-06 00:41:25.700 ,7,0,0.,12.0,0.,12.0,0.,12.0,0.,12.0
1979-08-06 00:41:37.700 ,7,1,0.,12.0,0.,12.0,0.,12.0,0.,12.0
1979-08-06 00:41:49.700 ,7,1,0.,12.0,0.,12.0,0.,12.0,0.,12.0
1979-08-06 00:42:01.700 ,7,0,0.,12.0,0.,12.0,0.,12.0,0.,12.0
1979-08-06 00:42:13.700 ,7,0,0.,12.0,0.,12.0,0.,12.0,0.,12.0
1979-08-06 00:42:25.700 ,6,1,0.,12.0,0.,12.0,0.,12.0,0.,12.0
1979-08-06 00:42:37.700 ,6,1,0.,12.0,0.,12.0,0.,12.0,0.,12.0
1979-08-06 00:42:49.700 ,0,0,0.,12.0,0.,12.0,0.,12.0,0.,12.0
1979-08-06 00:43:01.700 ,0,0,0.,12.0,0.,12.0,0.,12.0,0.,12.0
1979-08-06 00:43:13.700 ,5,1,0.,12.0,0.,12.0,0.,12.0,0.,12.0
1979-08-06 00:43:25.700 ,5,1,0.,12.0,0.,12.0,0.,12.0,0.,12.0
1979-08-06 00:43:37.700 ,5,0,0.,12.0,0.,12.0,0.,12.0,0.,12.0
1979-08-06 00:43:49.700 ,5,0,0.,12.0,0.,12.0,0.,12.0,0.,12.0
1979-08-06 00:44:01.700 ,4,1,0.,12.0,0.,12.0,0.,12.0,0.,12.0
1979-08-06 00:44:13.700 ,4,1,0.,12.0,0.,12.0,0.,12.0,0.,12.0
1979-08-06 00:44:25.700 ,4,0,0.,12.0,0.,12.0,0.,12.0,0.,12.0
1979-08-06 00:44:37.700 ,4,0,0.,12.0,0.,12.0,0.,12.0,0.,12.0
1979-08-06 00:44:49.700 ,3,1,0.,12.0,0.,12.0,0.,12.0,0.,12.0
1979-08-06 00:45:01.700 ,3,1,0.,12.0,0.,12.0,0.,12.0,0.,12.0
1979-08-06 00:45:13.700 ,3,0,0.,12.0,0.,12.0,0.,12.0,0.,12.0
1979-08-06 00:45:25.700 ,3,0,0.,12.0,0.,12.0,0.,12.0,0.,12.0
1979-08-06 00:45:37.700 ,2,1,,0,,0,,0,,0
1979-08-06 00:45:49.700 ,2,1,0.,12.0,0.,12.0,0.,12.0,0.,12.0
1979-08-06 00:46:01.700 ,2,0,0.,12.0,0.,12.0,0.,12.0,0.,12.0
1979-08-06 00:46:13.700 ,2,0,0.,12.0,0.,12.0,0.,12.0,0.,12.0
1979-08-06 00:46:25.700 ,1,1,0.,12.0,0.,12.0,0.,12.0,0.,12.0
1979-08-06 00:46:37.700 ,1,1,0.,12.0,0.,12.0,0.,12.0,0.,12.0
1979-08-06 00:46:49.700 ,1,0,0.,12.0,0.,12.0,0.,12.0,0.,12.0
1979-08-06 00:47:01.700 ,1,0,0.,12.0,0.,12.0,0.,12.0,0.,12.0
1979-08-06 00:47:13.700 ,0,1,0.,12.0,0.,12.0,0.,12.0,0.,12.0
1979-08-06 00:47:25.700 ,0,1,0.,12.0,0.,12.0,0.,12.0,0.,12.0
1979-08-06 00:47:37.700 ,0,0,0.,12.0,0.,12.0,0.,12.0,0.,12.0
1979-08-06 00:47:49.700 ,0,0,0.,12.0,0.,12.0,0.,12.0,0.,12.0
1979-08-06 00:48:01.700 ,0,1,0.,12.0,0.,12.0,0.,12.0,0.,12.0
1979-08-06 00:48:13.700 ,0,1,0.,12.0,0.,12.0,0.,12.0,0.,12.0
1979-08-06 00:48:25.700 ,0,0,0.,12.0,0.,12.0,0.,12.0,0.,12.0
1979-08-06 00:48:37.700 ,0,0,0.,12.0,0.,12.0,0.,12.0,1.,12.0
1979-08-06 00:48:49.700 ,1,1,0.,12.0,0.,12.0,0.,12.0,0.,12.0
1979-08-06 00:49:01.700 ,1,1,0.,12.0,0.,12.0,0.,12.0,0.,12.0
1979-08-06 00:49:13.700 ,1,0,0.,12.0,0.,12.0,0.,12.0,0.,12.0
1979-08-06 00:49:25.700 ,1,0,0.,12.0,0.,12.0,0.,12.0,0.,12.0
1979-08-06 00:49:37.700 ,2,1,0.,12.0,0.,12.0,0.,12.0,0.,12.0
1979-08-06 00:49:49.700 ,2,1,0.,12.0,0.,12.0,0.,12.0,0.,12.0
1979-08-06 00:50:01.700 ,2,0,0.,12.0,0.,12.0,0.,12.0,0.,12.0
1979-08-06 00:50:13.700 ,2,0,0.,12.0,0.,12.0,0.,12.0,0.,12.0
1979-08-06 00:50:25.700 ,3,1,0.,12.0,0.,12.0,0.,12.0,0.,12.0
1979-08-06 00:50:37.700 ,3,1,0.,12.0,0.,12.0,0.,12.0,0.,12.0
1979-08-06 00:50:49.700 ,3,0,0.,12.0,0.,12.0,0.,12.0,0.,12.0
1979-08-06 00:51:01.700 ,3,0,0.,12.0,0.,12.0,0.,12.0,0.,12.0
1979-08-06 00:51:13.700 ,4,1,0.,12.0,0.,12.0,0.,12.0,0.,12.0
1979-08-06 00:51:25.700 ,4,1,0.,12.0,0.,12.0,0.,12.0,0.,12.0
1979-08-06 00:51:37.700 ,4,0,0.,12.0,0.,12.0,0.,12.0,0.,12.0
1979-08-06 00:51:49.700 ,4,0,0.,12.0,0.,12.0,0.,12.0,0.,12.0
1979-08-06 00:52:01.700 ,5,1,0.,12.0,0.,12.0,0.,12.0,0.,12.0
1979-08-06 00:52:13.700 ,5,1,0.,12.0,0.,12.0,0.,12.0,0.,12.0
1979-08-06 00:52:25.700 ,5,0,0.,12.0,0.,12.0,0.,12.0,0.,12.0
1979-08-06 00:52:37.700 ,5,0,0.,12.0,0.,12.0,0.,12.0,0.,12.0
1979-08-06 00:52:49.700 ,0,0,0.,12.0,0.,12.0,0.,12.0,0.,12.0
1979-08-06 00:53:01.700 ,0,0,0.,12.0,0.,12.0,0.,12.0,0.,12.0
1979-08-06 00:53:13.700 ,0,0,,0,,0,,0,,0
1979-08-06 00:53:25.700 ,0,0,,0,,0,,0,,0
1979-08-06 00:54:13.700 ,0,0,,0,,0,,0,,0
1979-08-06 00:54:25.700 ,0,0,0.,12.0,0.,12.0,0.,12.0,0.,12.0
1979-08-06 00:54:25.700 ,7,1,0.,12.0,0.,12.0,0.,12.0,0.,12.0
1979-08-06 00:54:37.700 ,7,1,0.,12.0,0.,12.0,0.,12.0,0.,12.0
1979-08-06 00:54:49.700 ,7,0,0.,12.0,0.,12.0,0.,12.0,0.,12.0
1979-08-06 00:55:01.700 ,7,0,0.,12.0,0.,12.0,0.,12.0,0.,12.0
1979-08-06 00:55:13.700 ,6,1,0.,12.0,0.,12.0,0.,12.0,0.,12.0
1979-08-06 00:55:25.700 ,6,1,0.,12.0,0.,12.0,0.,12.0,0.,12.0
1979-08-06 00:55:37.700 ,6,0,0.,12.0,0.,12.0,0.,12.0,0.,12.0
1979-08-06 00:55:49.700 ,6,0,0.,12.0,0.,12.0,0.,12.0,0.,12.0
1979-08-06 00:56:01.700 ,5,1,0.,12.0,0.,12.0,0.,12.0,0.,12.0
1979-08-06 00:56:13.700 ,5,1,0.,12.0,0.,12.0,0.,12.0,0.,12.0
1979-08-06 00:56:25.700 ,0,0,0.,12.0,0.,12.0,0.,12.0,0.,12.0
1979-08-06 00:56:37.700 ,0,0,0.,12.0,0.,12.0,0.,12.0,0.,12.0
1979-08-06 00:56:49.700 ,4,1,0.,12.0,0.,12.0,0.,12.0,0.,12.0
1979-08-06 00:57:01.700 ,4,1,0.,12.0,0.,12.0,0.,12.0,0.,12.0
1979-08-06 00:57:13.700 ,4,0,0.,12.0,0.,12.0,0.,12.0,0.,12.0
1979-08-06 00:57:25.700 ,4,0,0.,12.0,0.,12.0,0.,12.0,0.,12.0
1979-08-06 00:57:37.700 ,3,1,0.,12.0,0.,12.0,0.,12.0,0.,12.0
1979-08-06 00:57:49.700 ,3,1,0.,12.0,0.,12.0,0.,12.0,0.,12.0
1979-08-06 00:58:01.700 ,3,0,0.,12.0,0.,12.0,0.,12.0,0.,12.0
1979-08-06 00:58:13.700 ,3,0,0.,12.0,0.,12.0,0.,12.0,0.,12.0
1979-08-06 00:58:25.700 ,2,1,0.,12.0,0.,12.0,0.,12.0,0.,12.0
1979-08-06 00:58:37.700 ,2,1,0.,12.0,0.,12.0,0.,12.0,0.,12.0
1979-08-06 00:58:49.700 ,2,0,0.,12.0,0.,12.0,0.,12.0,0.,12.0
1979-08-06 00:59:01.700 ,2,0,0.,12.0,0.,12.0,0.,12.0,0.,12.0
1979-08-06 00:59:13.700 ,1,1,0.,12.0,0.,12.0,0.,12.0,0.,12.0
1979-08-06 00:59:25.700 ,1,1,0.,12.0,0.,12.0,0.,12.0,0.,12.0
1979-08-06 00:59:37.700 ,1,0,0.,12.0,0.,12.0,0.,12.0,0.,12.0
1979-08-06 00:59:49.700 ,1,0,0.,12.0,0.,12.0,0.,12.0,0.,12.0
1979-08-06 01:00:01.700 ,0,1,0.,12.0,0.,12.0,0.,12.0,0.,12.0
1979-08-06 01:00:13.700 ,0,1,0.,12.0,0.,12.0,0.,12.0,0.,12.0
1979-08-06 01:00:25.700 ,0,0,0.,12.0,0.,12.0,0.,12.0,0.,12.0
1979-08-06 01:00:37.700 ,0,0,0.,12.0,0.,12.0,0.,12.0,0.,12.0
1979-08-06 01:00:49.700 ,0,1,0.,12.0,0.,12.0,0.,12.0,0.,12.0
1979-08-06 01:01:01.700 ,0,1,0.,12.0,0.,12.0,0.,12.0,0.,12.0
1979-08-06 01:01:13.700 ,0,0,0.,12.0,0.,12.0,0.,12.0,0.,12.0
1979-08-06 01:01:25.700 ,0,0,0.,12.0,0.,12.0,0.,12.0,0.,12.0
1979-08-06 01:01:37.700 ,1,1,0.,12.0,0.,12.0,0.,12.0,0.,12.0
1979-08-06 01:01:49.700 ,1,1,0.,12.0,0.,12.0,0.,12.0,0.,12.0
1979-08-06 01:02:01.700 ,1,0,0.,12.0,0.,12.0,0.,12.0,0.,12.0
1979-08-06 01:02:13.700 ,1,0,0.,12.0,0.,12.0,0.,12.0,0.,12.0
1979-08-06 01:02:25.700 ,2,1,0.,12.0,0.,12.0,0.,12.0,0.,12.0
1979-08-06 01:02:37.700 ,2,1,0.,12.0,0.,12.0,0.,12.0,0.,12.0
1979-08-06 01:02:49.700 ,2,0,0.,12.0,0.,12.0,0.,12.0,0.,12.0
1979-08-06 01:03:01.700 ,2,0,0.,12.0,0.,12.0,0.,12.0,0.,12.0
1979-08-06 01:03:13.700 ,3,1,0.,12.0,0.,12.0,0.,12.0,0.,12.0
1979-08-06 01:03:25.700 ,3,1,0.,12.0,0.,12.0,0.,12.0,0.,12.0
1979-08-06 01:03:37.700 ,3,0,0.,12.0,0.,12.0,0.,12.0,0.,12.0
1979-08-06 01:03:49.700 ,3,0,0.,12.0,0.,12.0,0.,12.0,0.,12.0
1979-08-06 01:04:01.700 ,4,1,0.,12.0,0.,12.0,0.,12.0,0.,12.0
1979-08-06 01:04:13.700 ,4,1,0.,12.0,0.,12.0,0.,12.0,0.,12.0
1979-08-06 01:04:25.700 ,4,0,0.,12.0,0.,12.0,0.,12.0,0.,12.0
1979-08-06 01:04:37.700 ,4,0,0.,12.0,0.,12.0,0.,12.0,0.,12.0
1979-08-06 01:04:49.700 ,5,1,0.,12.0,0.,12.0,0.,12.0,0.,12.0
1979-08-06 01:05:01.700 ,5,1,0.,12.0,0.,12.0,0.,12.0,0.,12.0
1979-08-06 01:05:13.700 ,5,0,0.,12.0,0.,12.0,0.,12.0,0.,12.0
1979-08-06 01:05:25.700 ,5,0,0.,12.0,0.,12.0,0.,12.0,0.,12.0
1979-08-06 01:05:37.700 ,6,1,0.,12.0,0.,12.0,0.,12.0,0.,12.0
1979-08-06 01:05:49.700 ,6,1,0.,12.0,0.,12.0,0.,12.0,0.,12.0
1979-08-06 01:06:01.700 ,6,0,0.,12.0,0.,12.0,0.,12.0,0.,12.0
1979-08-06 01:06:13.700 ,6,0,0.,12.0,0.,12.0,0.,12.0,0.,12.0
1979-08-06 01:06:25.700 ,7,0,0.,12.0,0.,12.0,0.,12.0,0.,12.0
1979-08-06 01:06:37.700 ,7,0,0.,12.0,0.,12.0,0.,12.0,0.,12.0
1979-08-06 01:06:49.700 ,7,0,0.,12.0,0.,12.0,0.,12.0,0.,12.0
1979-08-06 01:07:01.700 ,7,0,0.,12.0,0.,12.0,0.,12.0,0.,12.0
1979-08-06 01:07:13.700 ,4,1,0.,12.0,0.,12.0,0.,12.0,0.,12.0
1979-08-06 01:07:25.700 ,4,1,0.,12.0,0.,12.0,0.,12.0,0.,12.0
1979-08-06 01:07:37.700 ,0,1,0.,12.0,0.,12.0,0.,12.0,0.,12.0
1979-08-06 01:07:49.700 ,0,1,0.,12.0,0.,12.0,0.,12.0,0.,12.0
1979-08-06 01:08:01.700 ,3,1,0.,12.0,0.,12.0,0.,12.0,0.,12.0
1979-08-06 01:08:13.700 ,3,1,0.,12.0,0.,12.0,0.,12.0,0.,12.0
1979-08-06 01:08:25.700 ,7,1,0.,12.0,0.,12.0,0.,12.0,0.,12.0
1979-08-06 01:08:37.700 ,7,1,0.,12.0,0.,12.0,0.,12.0,0.,12.0
1979-08-06 01:08:49.700 ,4,1,0.,12.0,0.,12.0,0.,12.0,0.,12.0
1979-08-06 01:09:01.700 ,4,1,0.,12.0,0.,12.0,0.,12.0,0.,12.0
1979-08-06 01:09:13.700 ,0,1,0.,12.0,0.,12.0,0.,12.0,0.,12.0
1979-08-06 01:09:25.700 ,0,1,0.,12.0,0.,12.0,0.,12.0,0.,12.0
1979-08-06 01:09:37.700 ,3,1,0.,12.0,0.,12.0,0.,12.0,0.,12.0
1979-08-06 01:09:49.700 ,3,1,0.,12.0,0.,12.0,0.,12.0,0.,12.0
1979-08-06 01:10:01.700 ,7,1,0.,12.0,0.,12.0,0.,12.0,0.,12.0
1979-08-06 01:10:13.700 ,7,1,0.,12.0,0.,12.0,0.,12.0,0.,12.0
1979-08-06 01:10:25.700 ,4,1,0.,12.0,0.,12.0,0.,12.0,0.,12.0
1979-08-06 01:10:37.700 ,4,1,0.,12.0,0.,12.0,0.,12.0,0.,12.0
1979-08-06 01:10:49.700 ,0,1,0.,12.0,0.,12.0,0.,12.0,0.,12.0
1979-08-06 01:11:01.700 ,0,1,0.,12.0,0.,12.0,0.,12.0,0.,12.0
1979-08-06 01:11:13.700 ,3,1,0.,12.0,0.,12.0,0.,12.0,0.,12.0
1979-08-06 01:11:25.700 ,3,1,0.,12.0,0.,12.0,0.,12.0,0.,12.0
1979-08-06 01:11:37.700 ,7,1,0.,12.0,0.,12.0,0.,12.0,0.,12.0
1979-08-06 01:11:49.700 ,7,1,0.,12.0,0.,12.0,0.,12.0,0.,12.0
1979-08-06 01:12:01.700 ,4,1,0.,12.0,0.,12.0,0.,12.0,0.,12.0
1979-08-06 01:12:13.700 ,4,1,0.,12.0,0.,12.0,0.,12.0,0.,12.0
1979-08-06 01:12:25.700 ,0,1,0.,12.0,0.,12.0,0.,12.0,0.,12.0
1979-08-06 01:12:37.700 ,0,1,0.,12.0,0.,12.0,0.,12.0,0.,12.0
1979-08-06 01:12:49.700 ,3,1,0.,12.0,0.,12.0,0.,12.0,0.,12.0
1979-08-06 01:13:01.700 ,3,1,0.,12.0,0.,12.0,0.,12.0,0.,12.0
1979-08-06 01:13:13.700 ,7,1,0.,12.0,0.,12.0,0.,12.0,0.,12.0
1979-08-06 01:13:25.700 ,7,1,0.,12.0,0.,12.0,0.,12.0,0.,12.0
1979-08-06 01:13:37.700 ,4,1,0.,12.0,0.,12.0,0.,12.0,0.,12.0
1979-08-06 01:13:49.700 ,4,1,0.,12.0,0.,12.0,0.,12.0,0.,12.0
1979-08-06 01:14:01.700 ,0,1,0.,12.0,0.,12.0,0.,12.0,0.,12.0
1979-08-06 01:14:13.700 ,0,1,0.,12.0,0.,12.0,0.,12.0,0.,12.0
1979-08-06 01:14:25.700 ,3,1,0.,12.0,0.,12.0,0.,12.0,0.,12.0
1979-08-06 01:14:37.700 ,3,1,0.,12.0,0.,12.0,0.,12.0,0.,12.0
1979-08-06 01:14:49.700 ,7,1,0.,12.0,0.,12.0,0.,12.0,0.,12.0
1979-08-06 01:15:01.700 ,7,1,0.,12.0,0.,12.0,0.,12.0,0.,12.0
1979-08-06 01:15:13.700 ,4,1,0.,12.0,0.,12.0,0.,12.0,0.,12.0
1979-08-06 01:15:25.700 ,4,1,0.,12.0,0.,12.0,0.,12.0,0.,12.0
1979-08-06 01:15:37.700 ,0,1,0.,12.0,0.,12.0,0.,12.0,0.,12.0
1979-08-06 01:15:49.700 ,0,1,0.,12.0,0.,12.0,0.,12.0,0.,12.0
1979-08-06 01:16:01.700 ,3,1,0.,12.0,0.,12.0,0.,12.0,0.,12.0
1979-08-06 01:16:13.700 ,3,1,0.,12.0,0.,12.0,0.,12.0,0.,12.0
1979-08-06 01:16:25.700 ,7,1,0.,12.0,0.,12.0,0.,12.0,0.,12.0
1979-08-06 01:16:37.700 ,7,1,0.,12.0,0.,12.0,0.,12.0,0.,12.0
1979-08-06 01:16:49.700 ,4,1,0.,12.0,0.,12.0,0.,12.0,0.,12.0
1979-08-06 01:17:01.700 ,4,1,0.,12.0,0.,12.0,0.,12.0,0.,12.0
1979-08-06 01:17:13.700 ,0,1,0.,12.0,0.,12.0,0.,12.0,0.,12.0
1979-08-06 01:17:25.700 ,0,1,0.,12.0,0.,12.0,0.,12.0,0.,12.0
1979-08-06 01:17:37.700 ,0,0,0.,12.0,0.,12.0,0.,12.0,0.,12.0
1979-08-06 01:17:49.700 ,0,0,0.,12.0,0.,12.0,0.,12.0,0.,12.0